Home > Weather > Barnaul > Past weeks

Flag for Russia Past Weather in Barnaul, Russia — Yesterday and Last 2 Weeks

Now
66 °F

Passing clouds.


Feels Like: 66 °F
Forecast: 61 / 75 °F
Wind: 3 mph from South

Location: Barnaul Airport

Current Time: Jul 30, 2016 at 1:01:58 AM

Latest Report: Jul 30, 2016 at 12:30 AM


Visibility: N/A

Pressure: 29.62 "Hg

Humidity: 94%

Dew Point: 64 °F

Location of BarnaulLocation

Past Weather in Barnaul — Graph

°F

Barnaul Temperature Yesterday

Maximum temperature yesterday: 73 °F (at 2:00 PM)
Minimum temperature yesterday: 61 °F (at 3:30 AM)
Average temperature yesterday: 68 °F

High & Low Weather Summary for the Past Weeks

 TemperatureHumidityPressure
High82 °F (Jul 22, 3:30 PM)100% (Jul 28, 2:30 AM)29.80 "Hg (Jul 28, 2:30 AM)
Low55 °F (Jul 28, 6:00 AM)44% (Jul 19, 4:00 PM)29.50 "Hg (Jul 17, 4:00 AM)
Average69 °F79%29.64 "Hg
* Reported Jul 15 12:00 AM — Jul 30 12:00 AM, Barnaul, Weather by CustomWeather, © 2016

Note: Actual official high and low records may vary slightly from our data, if they occured in-between our weather recording intervals... More about our weather records

Advertising

Barnaul Weather History for the Previous 24 Hours

Scroll right to see more
 ConditionsComfort  
Time TempWeatherWind HumidityBarometerVisibility
12:00 AM
Sat, Jul 30
66 °FPassing clouds.6 mph88%29.62 "HgN/A
11:30 PM
Fri, Jul 29
68 °FPassing clouds.6 mph88%29.62 "HgN/A
11:00 PM70 °FPassing clouds.6 mph83%29.65 "HgN/A
10:30 PM70 °FPassing clouds.3 mph83%29.65 "HgN/A
10:00 PM70 °FPassing clouds.1 mph88%29.65 "HgN/A
9:30 PM70 °FPassing clouds.1 mph88%29.65 "HgN/A
9:00 PM72 °FPassing clouds.3 mph78%29.65 "HgN/A
8:30 PM72 °FPassing clouds.3 mph78%29.65 "HgN/A
8:00 PM72 °FScattered clouds.6 mph78%29.62 "HgN/A
7:30 PM72 °FScattered clouds.6 mph78%29.62 "HgN/A
7:00 PM72 °FScattered clouds.3 mph78%29.62 "HgN/A
6:30 PM72 °FScattered clouds.3 mph78%29.62 "HgN/A
6:00 PM73 °FScattered clouds.6 mph69%29.62 "HgN/A
5:30 PM73 °FScattered clouds.6 mph69%29.62 "HgN/A
5:00 PM73 °FPartly sunny.1 mph74%29.65 "HgN/A
4:30 PM73 °FPartly sunny.1 mph74%29.65 "HgN/A
4:00 PM73 °FPartly sunny.6 mph69%29.65 "HgN/A
3:30 PM73 °FPartly sunny.3 mph69%29.65 "HgN/A
3:00 PM73 °FPartly sunny.3 mph69%29.65 "HgN/A
2:30 PM73 °FPartly sunny.3 mph69%29.65 "HgN/A
2:00 PM73 °FScattered clouds.1 mph69%29.65 "HgN/A
1:30 PM72 °FScattered clouds.6 mph73%29.65 "HgN/A
1:00 PM72 °FPartly sunny.3 mph73%29.65 "HgN/A
12:30 PM72 °FPartly sunny.1 mph73%29.65 "HgN/A
12:00 PM72 °FPartly sunny.1 mph73%29.65 "HgN/A
11:30 AM70 °FBroken clouds.3 mph78%29.65 "HgN/A
11:00 AM68 °FScattered clouds.1 mph78%29.65 "HgN/A
10:30 AM68 °FScattered clouds.No wind78%29.65 "HgN/A
10:00 AM68 °FPassing clouds.No wind78%29.65 "HgN/A
9:30 AM66 °FSunny.No wind83%29.65 "Hg10 mi
9:00 AM66 °FClear.3 mph83%29.65 "HgN/A
8:30 AM64 °FClear.No wind88%29.65 "HgN/A
8:00 AM63 °FPassing clouds.1 mph94%29.65 "Hg6 mi
7:30 AM63 °FPassing clouds.3 mph88%29.65 "Hg4 mi
7:00 AM63 °FFog.No wind88%29.62 "Hg2 mi
6:30 AM63 °FPartly sunny.No wind88%29.62 "Hg4 mi
6:00 AM61 °FFog.No wind94%29.62 "Hg3 mi
5:30 AM63 °FPartly sunny.No wind88%29.62 "Hg4 mi
5:00 AM61 °FFog.1 mph94%29.62 "Hg3 mi
4:30 AM61 °FLight rain. Fog.3 mph94%29.62 "Hg3 mi
4:00 AM61 °FLight rain. Fog.3 mph94%29.62 "Hg3 mi
3:30 AM61 °FLight rain. Passing clouds.1 mph94%29.62 "Hg4 mi
3:00 AM63 °FLight rain. Fog.3 mph88%29.62 "Hg3 mi
2:30 AM63 °FPassing clouds.3 mph94%29.62 "Hg4 mi
2:00 AM63 °FLight rain. Passing clouds.3 mph88%29.62 "Hg4 mi
1:30 AM64 °FPassing clouds.3 mph78%29.62 "HgN/A
1:00 AM64 °FPassing clouds.3 mph83%29.62 "HgN/A
Weather by CustomWeather, © 2016

See weather overviewHow to use our weather pages